Flag for Germany Weather past 2 weeks in Kamp-Lintfort, North Rhine-Westphalia, Germany

Now
85 °F

Overcast.


Feels Like: 88 °F
Forecast: 66 / 86 °F
Wind: 5 mph from Northwest

Location: Duesseldorf

Current Time: Jul 5, 2015 at 12:44:18 AM

Latest Report: Jul 4, 2015 at 10:00 PM


Visibility: 19 mi

Pressure: 30.07 "Hg

Humidity: 52%

Dew point: 66 °F

Location of Kamp-LintfortLocation

Historic Weather in Kamp-Lintfort — Graph

°F

Kamp-Lintfort temperature yesterday

Maximum temperature yesterday: 96 °F (at 6:00 PM)
Minimum temperature yesterday: 71 °F (at 6:00 AM)
Average temperature yesterday: 85 °F

Past Weeks' High & Low Weather Summary

 TemperatureHumidityPressure
High98 °F (Jul 2, 4:00 PM)98% (Jun 22, 10:00 PM)30.25 "Hg (Jun 22, 10:00 PM)
Low49 °F (Jun 23, 4:00 AM)26% (Jul 1, 6:00 PM)29.72 "Hg (Jun 22, 8:00 PM)
Average68 °F65%30.07 "Hg
* Reported Jun 19 10:00 PM — Jul 4 10:00 PM, Kamp-Lintfort, Weather by CustomWeather, © 2015

Note: Actual official high and low records may vary slightly from our data, if they occured in-between our weather recording intervals... More about our weather records

Advertising

Kamp-Lintfort weather history for previous 24 hours

 ConditionsComfort  
Time TempWeatherWind HumidityBarometerVisibility
10:00 PM
Sat, Jul 4
85 °FOvercast.5 mph52%30.07 "Hg19 mi
9:00 PM89 °FPartly sunny.3 mph46%30.06 "Hg19 mi
8:00 PM93 °FPartly sunny.1 mph37%30.06 "Hg22 mi
7:00 PM95 °FScattered clouds.3 mph34%30.05 "Hg22 mi
6:00 PM96 °FScattered clouds.2 mph33%30.05 "Hg16 mi
4:00 PM95 °FScattered clouds.6 mph31%30.06 "Hg19 mi
3:00 PM95 °FScattered clouds.7 mph31%30.06 "Hg16 mi
2:00 PM94 °FScattered clouds.6 mph36%30.05 "Hg19 mi
1:00 PM93 °FScattered clouds.5 mph42%30.05 "Hg16 mi
12:00 PM91 °FScattered clouds.6 mph43%30.05 "Hg16 mi
11:00 AM89 °FScattered clouds.6 mph46%30.05 "Hg16 mi
10:00 AM87 °FScattered clouds.7 mph49%30.04 "Hg16 mi
9:00 AM85 °FScattered clouds.7 mph52%30.04 "Hg16 mi
8:00 AM80 °FScattered clouds.2 mph68%30.04 "Hg12 mi
7:00 AM72 °FPartly sunny.1 mph84%30.05 "Hg12 mi
6:00 AM71 °FPartly sunny.1 mph86%30.06 "Hg9 mi
4:00 AM72 °FPassing clouds.1 mph83%30.09 "Hg16 mi
3:00 AM74 °FPassing clouds.1 mph78%30.10 "Hg16 mi
2:00 AM75 °FPassing clouds.2 mph75%30.13 "Hg16 mi
1:00 AM78 °FPassing clouds.3 mph69%30.14 "Hg16 mi
12:00 AM79 °FPassing clouds.5 mph67%30.15 "Hg12 mi
Weather by CustomWeather, © 2015

See weather overviewHow to use our weather pages